Voltar ao catálogo

LEMUR-2 KUTAR

AtivoMeteoSSO
NORAD 67394·PAYLOAD·🇺🇸 United States

Lançado Jan 11, 2026 de Vandenberg Space Force Base

Loading…

Próximas Passagens (próximas 24 horas)

TLE

AtualizadoSource: Space-Track

Época: Sep 14, 2026, 23:17 UTC

1 67394U 26004AH  26257.97033450  .00004127  00000-0  19429-3 0  9996
2 67394  97.4558 255.9432 0009482  33.8374 326.3464 15.20062751 37401

Acompanhe LEMUR-2 KUTAR em tempo real com AllMySat

Download on the App Store